Regional Weather Roundup
Issued by NWS Midland/Odessa, TX

Skip options and go directly to product.
Home | Oldest Version | Previous Version | Current Version | All | Graphics & Text | Save Text | Print | Product List | Glossary On

Skip product version selection by date and time.   
162
ASUS44 KMAF 191210
RWRMAF
MIDLAND AREA WEATHER ROUNDUP
NATIONAL WEATHER SERVICE MIDLAND TX
700 AM CDT SAT APR 19 2014

...IN SOUTHWEST TEXAS AND SOUTHEAST NEW MEXICO...

CITY           SKY/WX    TMP DP  RH WIND       PRES   REMARKS
ALPINE         CLOUDY    58  48  68 CALM      30.15R
ANDREWS        FAIR      54  43  67 E5        30.08F
ARTESIA        CLOUDY    55  54  94 S9        30.05R
BIG SPRING     MOCLDY    60  48  65 SE12      30.12R
CARLSBAD       MOCLDY    55  52  89 SW3       30.04R
DRYDEN           N/A     63  56  78 E8        30.05R
FORT STOCKTON  CLOUDY    61  51  70 S17       30.05R
GUAD PASS      FOG       50  50 100 NE18      30.09S VSB 1/4
HOBBS          MOCLDY    55  46  71 E12       30.06
MARFA          CLOUDY    54  45  71 E5        30.12S
MIDLAND AIRPK  CLOUDY    58  48  67 SE7       30.08S
MIDLAND INTL   CLOUDY    58  48  69 E10       30.07S
ODESSA         CLOUDY    59  48  67 SE8       30.08R
PECOS          CLOUDY    60  50  69 E6        30.02R
PRESIDIO       FAIR      66  49  55 NE10      30.00R
SEMINOLE       CLOUDY    52  42  69 NE3       30.11R
SNYDER         MOCLDY    55  50  85 SE6       30.11S
WINK           MOCLDY    62  50  64 SE17      30.01F
$$
...OTHER STATIONS IN TEXAS...

CITY           SKY/WX    TMP DP  RH WIND       PRES   REMARKS
ABILENE        PTCLDY    57  49  74 SE12      30.11R
AMARILLO       CLOUDY    50  42  74 S15       30.10S
AUSTIN         MOCLDY    47  46  97 CALM      30.13R FOG
BROWNSVILLE    PTCLDY    61  61 100 NE3       30.09R
CORPUS CHRISTI MOCLDY    59  56  89 NE3       30.11R
DALLAS FTW     MOCLDY    56  48  74 CALM      30.15R
DEL RIO        CLOUDY    66  56  70 SE10      30.08R
EL PASO        LGT RAIN  63  49  60 E5        30.00R
HOUSTON INT    MOCLDY    56  54  93 CALM      30.14S
LUBBOCK        MOCLDY    52  44  74 S8        30.10R
SAN ANGELO     PTCLDY    58  51  78 S8        30.10R
SAN ANTONIO    MOCLDY    57  53  86 CALM      30.14R
WACO           PTCLDY    47  46  97 NW3       30.15R FOG
WICHITA FALLS  NOT AVBL
$$
...OTHER LOCATIONS IN NEW MEXICO...

CITY           SKY/WX    TMP DP  RH WIND       PRES   REMARKS
ALAMAGORDO     CLOUDY    57  46  67 N9        30.03S
ALBUQUERQUE    PTCLDY    54  39  57 CALM      30.10R
CANNON AFB     MOCLDY    51  42  72 S3        30.10S
CLOVIS         CLOUDY    48  39  71 CALM      30.12S
HOLLOMAN AFB   MOCLDY    56  48  75 N6        30.02S
ROSWELL        MOCLDY    58  48  69 E3        30.03F
RUIDOSO        PTCLDY    46  41  81 S5        30.18S
SANTA FE       PTCLDY    40  38  93 N5        30.13S WCI  37
TRUTH OR CONSE TSTM      55  44  66 SW13      30.11R
TUCUMCARI      PTCLDY    57  43  59 S6        30.06R
$$

USA.gov is the U.S. government's official web portal to all federal, state and local government web resources and services.